www.pogodaiklimat.ru

Погода и климат >> Архив погоды >> Россия >> Оренбургская область >> Троицкое Т


ПОГОДА в Троицком Т

  • Прогноз погоды в Троицком Т
  • Монитор погоды в Троицком Т

АРХИВ ПОГОДЫ в Троицком Т

Время (UTC), дата Ветер
(напр.,м/с)
 
Видим.   Явления Облачность Т
(С)
Тd
(С)
f
(%)
Тe
(С)
Тes
(С)
Комфортность P
(гПа)
Po
(гПа)
Тmin
(С)
Tmax
(С)
R
(мм)
R24
(мм)
S
(см)
21 8.09 штиль 0 10 км 3/3 600 м
[Sc]
+8.2 +6.9 92 +7 +7 1024.9 996.9
00 9.09 С 2 10 км ясно +8.1 +6.7 91 +6 +6 1025.2 997.2
03 9.09 С 1 20 км 5/5 600 м
[Sc]
+7.5 +6.7 95 +6 +7 1026.2 998.1 +6.1
06 9.09 С 2 20 км 4/3 600 м
[Sc diur, vesp Ci sp]
+17.0 +8.6 58 +17 +22 1025.0 997.9
09 9.09 С 4 20 км 6/5 600 м
[Cb cap Ci sp]
+18.9 +8.2 50 +19 +22 1024.1 997.2
12 9.09 СЗ 3 20 км 6/6 600 м
[Cb cap]
+20.7 +7.8 43 +22 +23 комфорт 1023.0 996.3
15 9.09 СЗ 2 20 км 3/3 600 м
[Cu hum]
+15.9 +7.7 58 +16 +16 1024.1 996.9 +21.1
18 9.09 С 1 10 км ясно +10.2 +7.2 82 +10 +10 1025.2 997.4
21 9.09 СЗ 1 10 км 4/0
[Ci sp]
+6.5 +5.5 93 +5 +5 1026.4 998.2
00 10.09 штиль 0 10 км 8/3 600 м
[Cb cap Ac trans Cc]
+6.5 +5.7 95 +5 +5 1026.8 998.6
03 10.09 штиль 0 20 км 8/0
[Cc]
+6.8 +6.1 95 +6 +6 1027.1 998.9 +6.1
06 10.09 В 1 20 км 8/0
[Cc]
+15.8 +7.5 58 +17 +23 1026.4 999.1
09 10.09 Ю 1 20 км 6/5 600 м
[Cu med, cong Cc]
+20.4 +5.7 38 +22 +27 комфорт 1025.6 998.7
12 10.09 штиль 0 20 км 9/6 720 м
[Cu med, cong Ac trans]
+20.4 +5.1 37 +21 +22 комфорт 1025.5 998.6
15 10.09 СВ 2 20 км 9/5 600 м
[Cb cap Ac und]
+16.3 +8.7 61 +16 +16 1027.1 999.8 +21.7
18 10.09 С 1 10 км 3/3 600 м
[Cb cap]
+12.0 +9.0 82 +12 +12 1028.5 1000.8
21 10.09 штиль 0 10 км ясно +6.5 +5.8 95 +5 +5 1030.2 1001.9
00 11.09 СЗ 1 10 км ясно +3.8 +3.4 97 +2 +2 1031.7 1003.1
03 11.09 СЗ 1 20 км ясно +5.6 +5.2 97 +4 +5 1033.1 1004.6 +3.4
06 11.09 ЮВ 1 20 км ясно +16.3 +8.9 62 +17 +25 1032.6 1005.2
09 11.09 В 2 20 км 6/6 700 м
[Cu med, cong]
+19.8 +7.5 45 +21 +25 комфорт 1031.8 1004.7
12 11.09 С 2 20 км 4/4 600 м
[Cu med, cong]
+20.8 +4.7 35 +22 +24 комфорт 1031.2 1004.2
15 11.09 СЗ 1 20 км 1/1 600 м
[Sc diur, vesp]
+12.9 +8.2 73 +13 +13 1032.0 1004.3 +21.4
18 11.09 СЗ 1 10 км ясно +7.3 +6.0 91 +6 +6 1033.2 1004.9
21 11.09 СЗ 1 10 км ясно +4.4 +3.4 93 +3 +3 1033.4 1004.8
00 12.09 штиль 0 10 км ясно +2.6 +2.1 97 +1 +1 1033.6 1004.8
03 12.09 СЗ 1 20 км 1/0
[Ci fib]
+4.8 +4.2 96 +3 +4 1033.6 1005.1 +2.1
06 12.09 СВ 2 20 км ясно +17.4 +8.5 56 +18 +24 1031.8 1004.5
09 12.09 С 3 20 км 3/0
[Ci fib]
+20.5 +5.6 38 +22 +29 комфорт 1029.9 1002.9
12 12.09 СВ 2 20 км ясно +21.5 +4.3 32 +22 +25 комфорт 1028.0 1001.2
15 12.09 СЗ 1 20 км ясно +14.2 +7.1 62 +15 +15 1028.2 1000.7 +21.9
18 12.09 С 1 10 км ясно +8.1 +6.8 91 +7 +7 1028.9 1000.8
21 12.09 СЗ 2 10 км ясно +5.5 +4.4 93 +3 +3 1028.5 1000.1
00 13.09 С 1 10 км ясно +3.5 +2.9 96 +2 +2 1028.4 999.8
03 13.09 штиль 0 20 км ясно +4.8 +4.0 95 +4 +4 1028.1 999.6 +3.0
06 13.09 ЮВ 1 20 км ясно +17.3 +8.9 58 +18 +26 1026.2 999.1
09 13.09 ЮЗ 1 20 км 1/1 600 м
[Cu hum]
+22.9 +5.7 33 +23 +33 комфорт 1024.1 997.5
12 13.09 З 1 20 км 1/0
[Ci]
+23.1 +4.4 30 +23 +27 комфорт 1022.5 995.9
15 13.09 СЗ 1 20 км 3/0
[Ci]
+14.9 +7.2 60 +16 +16 1022.6 995.3 +24.2
18 13.09 СЗ 2 10 км ясно +9.4 +6.4 82 +8 +8 1023.2 995.4
21 13.09 С 1 10 км ясно +5.5 +4.2 91 +4 +4 1023.2 995.0
00 14.09 СЗ 1 10 км ясно +3.4 +2.6 94 +2 +2 1023.0 994.6
03 14.09 СЗ 1 20 км ясно +4.6 +3.5 93 +3 +4 1022.7 994.4 +2.3
06 14.09 В 1 20 км ясно +17.4 +8.0 54 +18 +26 1020.9 993.9
09 14.09 ЮЗ 1 20 км 4/4 600 м
[Cu med, cong]
+24.0 +6.7 33 +24 +30 комфорт 1018.9 992.5
12 14.09 З 2 20 км 4/4 600 м
[Cu med, cong]
+24.4 +5.7 30 +24 +26 комфорт 1017.6 991.3
15 14.09 штиль 0 20 км 3/3 600 м
[Cb cap]
+15.0 +7.4 60 +15 +15 1018.0 990.8 +25.4
18 14.09 СЗ 1 10 км ясно +9.7 +6.4 80 +9 +9 1018.4 990.7
21 14.09 СЗ 1 10 км 3/3 600 м
[Cb cap]
+6.1 +4.3 88 +5 +5 1018.4 990.4
00 15.09 штиль 0 10 км 8/8 630 м
[Cb cap]
+5.9 +4.6 91 +5 +5 1017.9 989.8
03 15.09 штиль 0 20 км 9/9 660 м
[Sc]
+7.8 +6.6 92 +7 +7 1017.3 989.5 +4.7
06 15.09 ЮВ 2 20 км 9/6 630 м
[Cb cap Ac trans]
+18.0 +6.1 46 +19 +20 1015.9 989.0
09 15.09 ЮЗ 3 20 км 9/5 600 м
[Cb cap Ac trans]
+25.1 +5.7 29 +25 +27 комфорт 1014.0 987.9
12 15.09 ЮЗ 3 20 км 9/8 630 м
[Cb cap Ac lent]
+23.3 +3.5 27 +23 +23 комфорт 1013.0 986.7
15 15.09 ЮЗ 2 20 км 9/5 600 м
[Cb cap Ac trans Cc]
+19.4 +2.0 31 +20 +20 1011.9 985.3 +25.8
18 15.09 ЮЗ 1 10 км 10/5 600 м
[Cb cap As trans]
+16.1 +7.7 57 +17 +17 1012.1 985.2

 

Местоположение метеостанции Троицкое Т (Оренбургская область, Россия): широта 52.33 долгота 56.37 высота над уровнем моря 229 м.

В архиве по умолчанию представлена погода в Троицком Т за последнюю неделю. Архивные данные за месяц целиком и за предыдущие месяцы, начиная с января 2011 года, Вы можете получить, выбрав интересующий диапазон дат из раскрывающегося списка и нажав кнопку "Ввод!".


*Определитесь, кто Вы:
робот инопланетянин человек

Внимание! Время в таблицах - всемирное. Для получения местного времени необходимо прибавить поправку, которая равна 5 ч.

Смотрите также архив погоды в соседних городах и на ближайших метеорологических станциях:

Погода в Кумертау (Башкирия, Россия) (62 км)
Погода в Зилаире (Башкирия, Россия) (71 км)
Погода в Шульган-Таше (Башкирия, Россия) (93 км)
Погода в Татарской Каргале (Оренбургская область, Россия) (95 км)
Погода в Беляевке (Оренбургская область, Россия) (101 км)
Погода в Старосубхангулово (Башкирия, Россия) (112 км)
Погода в Оренбурге (Оренбургская область, Россия) (113 км)
Погода в Салавате (Башкирия, Россия) (117 км)
Погода в Кувандыке (Оренбургская область, Россия) (118 км)
Погода в Федоровке (Башкирия, Россия) (122 км)

Пояснения к столбцам:

Ветер - указаны скорость ветра в м/с - средняя за 10 мин, порывы в срок и между сроками (в фигурных скобках) и направление, откуда дует ветер: С - северный, СВ - северо-восточный, В - восточный, ЮВ - юго-восточный, Ю - южный, ЮЗ - юго-западный, З - западный, СЗ - северо-западный.
Видимость - горизонтальная дальность видимости в метрах или километрах. При видимости от 1 до 10 км при отсутствии осадков обычно наблюдается дымка, при ухудшении видимости до 1 км и менее - туман. В сухую погоду видимость может ухудшаться дымом, пылью или мглою.
Явления - указаны атмосферные явления, наблюдавшиеся в срок или в последний час перед сроком; фигурными скобками обозначены явления, наблюдавшиеся между сроками (за 1-3 часа до срока); квадратными скобками обозначены град или гололедные отложения с указанием их диаметра в мм.
Облачность - указаны через наклонную черту общая и нижняя облачность в баллах и высота нижней границы облаков в метрах; квадратными скобками обозначены формы облаков: Ci - перистые, Cs - перисто-слоистые, Cc - перисто-кучевые, Ac - высококучевые, As - высокослоистые, Sc - слоисто-кучевые, Ns - слоисто-дождевые, Cu - кучевые, Cb - кучево-дождевые. Подробнее классификацию облаков см. в Атласе облаков (PDF).
T - Температура воздуха - температура, измеренная на высоте 2 м над землей.
Td - Температура точки росы - температура, при понижении до которой содержащийся в воздухе водяной пар достигнет насыщения.
f - Относительная влажность воздуха - влажноcть воздуха, измеренная на высоте 2 м над землей.
Te - Эффективная температура - температура, которую ощущает одетый по сезону человек в тени. Характеристика душности погоды. При расчете учитывается влияние влажности воздуха и скорости ветра на теплоощущения человека.
Tes - Эффективная температура на солнце - температура, которую ощущает человек, с поправкой на солнечный нагрев. Характеристика знойности погоды. Зависит от высоты солнца над горизонтом, облачности и скорости ветра. Ночью, в пасмурную погоду, а также при ветре 12 м/с и более поправка равна нулю.
P - Атмосферное давление - приведенное к уровню моря атмосферное давление.
Po - Атмосферное давление - измеренное на уровне метеостанции атмосферное давление.
Tmin - Минимальная температура - минимум температуры воздуха на высоте 2 м над землей.
Tmax - Максимальная температура - максимум температуры воздуха на высоте 2 м над землей.
R - Количество осадков - Количество выпавших осадков за период времени, мм. При наведении курсора мыши на число - период времени, за который выпало указанное количество осадков.
R24 - Количество осадков - Количество выпавших осадков за 24 часа, мм.
S - Снежный покров - Высота снежного покрова, см. При наведении курсора мыши на число - состояние снежного покрова и степень покрытия местности в баллах.